Location: Oberkirch
(48.5323°N, 8.0787°E)
Time: 22:45:17
(UTC+00:00)

NOAA 18 - Visible Passes

Search period start: 13 March 2026 00:00
Search period end: 23 March 2026 00:00
Orbit: 836 x 858 km, 98.8° (Epoch: 13 March)

Date Brightness Start Highest point End Pass type
(mag) Time Alt. Az. Time Alt. Az. Time Alt. Az.
13 Mar 6.7 20:53:59 28° NNE 20:53:59 28° NNE 20:56:46 10° N visible
13 Mar 7.6 22:35:53 17° NW 22:35:53 17° NW 22:37:19 10° NNW visible
14 Mar 6.7 20:40:42 26° NNE 20:40:42 26° NNE 20:43:37 10° N visible
14 Mar 7.4 22:22:37 21° NW 22:22:37 21° NW 22:24:28 10° NNW visible
15 Mar 6.7 20:27:26 24° NE 20:27:26 24° NE 20:30:24 10° N visible
15 Mar 7.2 22:09:20 24° NNW 22:09:20 24° NNW 22:11:34 10° NNW visible
16 Mar 6.8 20:14:09 21° NE 20:14:09 21° NE 20:17:08 10° N visible
16 Mar 6.9 21:56:04 28° NNW 21:56:04 28° NNW 21:58:38 10° NNW visible
17 Mar 6.9 20:00:52 18° NE 20:00:52 18° NE 20:03:48 10° NNE visible
17 Mar 6.7 21:42:47 32° NNW 21:42:47 32° NNW 21:45:38 10° NNW visible
18 Mar 7.0 19:47:36 15° NE 19:47:36 15° NE 19:50:20 10° NNE visible
18 Mar 6.5 21:29:30 35° N 21:29:30 35° N 21:32:36 10° NNW visible
18 Mar 7.9 23:11:25 12° NW 23:11:25 12° NW 23:11:58 10° NW visible
19 Mar 7.2 19:34:19 12° NE 19:34:37 12° NE 19:36:37 10° NNE visible
19 Mar 6.3 21:16:13 37° N 21:16:13 37° N 21:19:33 10° N visible
19 Mar 7.7 22:58:08 15° NW 22:58:08 15° NW 22:59:25 10° NW visible
20 Mar 6.3 21:02:57 36° NNE 21:02:57 36° NNE 21:06:27 10° N visible
20 Mar 7.4 22:44:51 19° NW 22:44:51 19° NW 22:46:43 10° NW visible
21 Mar 6.3 20:49:40 33° NNE 20:49:40 33° NNE 20:53:18 10° N visible
21 Mar 7.2 22:31:35 23° NW 22:31:35 23° NW 22:33:56 10° NNW visible
22 Mar 6.4 20:36:23 29° NE 20:36:23 29° NE 20:40:09 10° N visible
22 Mar 6.9 22:18:18 28° NW 22:18:18 28° NW 22:21:05 10° NNW visible
